Flag for Switzerland Weather past 2 weeks in Lugano, Switzerland

Now
81 °F

Passing clouds.


Feels Like: 81 °F
Forecast: 57 / 83 °F
Wind: 6 mph from South

Location: Lugano Airport

Current Time: Jun 2, 2015 at 3:47:19 PM

Latest Report: Jun 2, 2015 at 3:20 PM


Visibility: N/A

Pressure: 30.09 "Hg

Humidity: 48%

Dew point: 59 °F

Location of LuganoLocation

Historic Weather in Lugano — Graph

°F

Lugano temperature yesterday

Maximum temperature yesterday: 77 °F (at 5:20 PM)
Minimum temperature yesterday: 57 °F (at 3:20 AM)
Average temperature yesterday: 66 °F

Past Weeks' High & Low Weather Summary

 TemperatureHumidityPressure
High79 °F (Jun 2, 1:20 PM)100% (May 19, 2:50 AM)30.12 "Hg (May 19, 2:50 AM)
Low46 °F (May 20, 11:50 PM)22% (May 27, 2:20 PM)29.71 "Hg (May 19, 3:50 PM)
Average63 °F66%29.95 "Hg
* Reported May 18 2:20 PM — Jun 2 2:20 PM, Lugano, Weather by CustomWeather, © 2015

Note: Actual official high and low records may vary slightly from our data, if they occured in-between our weather recording intervals... More about our weather records

Advertising

Lugano weather history for previous 24 hours

 ConditionsComfort  
Time TempWeatherWind HumidityBarometerVisibility
2:20 PM
Tue, Jun 2
79 °FPassing clouds.5 mph42%30.12 "HgN/A
1:50 PM79 °FPassing clouds.6 mph45%30.12 "HgN/A
1:20 PM79 °FPassing clouds.5 mph37%30.12 "HgN/A
12:50 PM75 °FPassing clouds.5 mph50%30.12 "HgN/A
12:20 PM75 °FPassing clouds.3 mph57%30.12 "HgN/A
11:50 AM73 °FPassing clouds.6 mph65%30.12 "HgN/A
11:20 AM72 °FPassing clouds.5 mph69%30.12 "HgN/A
10:50 AM70 °FPassing clouds.5 mph73%30.12 "HgN/A
10:20 AM68 °FPassing clouds.3 mph78%30.12 "HgN/A
9:50 AM68 °FScattered clouds.3 mph78%30.12 "HgN/A
9:20 AM66 °FPartly sunny.3 mph88%30.12 "Hg4 mi
8:50 AM66 °FPartly sunny.1 mph83%30.12 "Hg4 mi
8:20 AM63 °FScattered showers. Broken clouds.1 mph94%30.12 "Hg4 mi
7:50 AM63 °FScattered showers. Broken clouds.1 mph94%30.12 "Hg4 mi
7:20 AM63 °FLight rain. Broken clouds.3 mph94%30.12 "Hg4 mi
6:50 AM63 °FScattered showers. Partly sunny.1 mph88%30.09 "Hg6 mi
6:20 AM61 °FScattered showers. Partly cloudy.1 mph94%30.09 "Hg6 mi
5:20 AM59 °FPassing clouds.2 mph100%30.07 "Hg6 mi
4:50 AM59 °FPassing clouds.1 mph100%30.07 "Hg4 mi
4:20 AM61 °FCool.2 mph94%30.07 "HgN/A
3:50 AM61 °FPassing clouds.5 mph94%30.09 "HgN/A
3:20 AM63 °FMostly cloudy.2 mph88%30.09 "HgN/A
2:50 AM63 °FPassing clouds.2 mph94%30.09 "HgN/A
2:20 AM61 °FPassing clouds.1 mph94%30.09 "Hg6 mi
1:50 AM61 °FFog.2 mph94%30.09 "Hg3 mi
1:20 AM63 °FPassing clouds.1 mph88%30.09 "HgN/A
12:50 AM61 °FPassing clouds.3 mph94%30.09 "HgN/A
12:20 AM63 °FPassing clouds.2 mph88%30.09 "HgN/A
11:50 PM
Mon, Jun 1
64 °FPassing clouds.2 mph83%30.09 "HgN/A
11:20 PM64 °FOvercast.3 mph83%30.07 "HgN/A
10:50 PM64 °FMostly cloudy.6 mph88%30.07 "HgN/A
10:20 PM64 °FPassing clouds.3 mph88%30.07 "HgN/A
9:50 PM66 °FScattered clouds.3 mph83%30.07 "Hg6 mi
9:20 PM66 °FScattered clouds.6 mph88%30.04 "Hg6 mi
8:50 PM68 °FScattered clouds.6 mph83%30.04 "Hg6 mi
8:20 PM72 °FScattered clouds.5 mph69%30.04 "HgN/A
7:50 PM73 °FScattered clouds.5 mph61%30.04 "HgN/A
7:20 PM75 °FScattered clouds.3 mph57%30.04 "HgN/A
6:50 PM75 °FScattered clouds.3 mph61%30.04 "HgN/A
6:20 PM75 °FScattered clouds.3 mph61%30.04 "Hg6 mi
5:50 PM77 °FScattered clouds.2 mph57%30.04 "HgN/A
5:20 PM77 °FScattered clouds.5 mph54%30.04 "HgN/A
4:50 PM75 °FScattered clouds.5 mph57%30.04 "HgN/A
4:20 PM75 °FScattered clouds.6 mph57%30.04 "HgN/A
3:50 PM75 °FScattered clouds.5 mph57%30.07 "Hg6 mi
3:20 PM75 °FScattered clouds.5 mph61%30.07 "Hg6 mi
Weather by CustomWeather, © 2015

See weather overviewHow to use our weather pages